TimeCDT,TemperatureF,Dew PointF,Humidity,Sea Level PressureIn,VisibilityMPH,Wind Direction,Wind SpeedMPH,Gust SpeedMPH,PrecipitationIn,Events,Conditions,WindDirDegrees,DateUTC
12:54 AM,75.0,57.0,53,29.95,10.0,South,10.4,-,N/A,,Clear,180,2013-07-05 05:54:00
1:54 AM,73.0,57.9,59,29.95,10.0,South,8.1,-,N/A,,Clear,190,2013-07-05 06:54:00
2:54 AM,72.0,57.0,59,29.95,10.0,South,6.9,-,N/A,,Partly Cloudy,190,2013-07-05 07:54:00
3:54 AM,72.0,57.0,59,29.95,10.0,SSW,9.2,-,N/A,,Partly Cloudy,210,2013-07-05 08:54:00
4:54 AM,70.0,57.0,63,29.96,10.0,SSW,5.8,-,N/A,,Clear,200,2013-07-05 09:54:00
5:54 AM,69.1,57.0,65,29.97,10.0,South,9.2,-,N/A,,Partly Cloudy,190,2013-07-05 10:54:00
6:54 AM,70.0,59.0,68,29.97,10.0,Calm,Calm,-,N/A,,Scattered Clouds,0,2013-07-05 11:54:00
7:54 AM,71.1,57.9,63,29.99,10.0,South,9.2,-,N/A,,Clear,190,2013-07-05 12:54:00
8:54 AM,75.0,60.1,60,29.99,10.0,SSW,6.9,-,N/A,,Clear,200,2013-07-05 13:54:00
9:54 AM,79.0,61.0,54,29.97,10.0,South,8.1,-,N/A,,Clear,190,2013-07-05 14:54:00
10:54 AM,82.0,62.1,51,29.98,10.0,South,6.9,-,N/A,,Clear,190,2013-07-05 15:54:00
11:54 AM,84.9,62.1,46,29.96,10.0,South,6.9,-,N/A,,Clear,180,2013-07-05 16:54:00
12:54 PM,86.0,63.0,46,29.94,10.0,Variable,5.8,-,N/A,,Clear,0,2013-07-05 17:54:00
1:54 PM,88.0,62.1,42,29.94,10.0,SSE,10.4,24.2,N/A,,Clear,160,2013-07-05 18:54:00
2:54 PM,89.1,60.1,38,29.93,10.0,South,12.7,18.4,N/A,,Clear,170,2013-07-05 19:54:00
3:54 PM,89.1,59.0,36,29.91,10.0,South,11.5,20.7,N/A,,Clear,170,2013-07-05 20:54:00
4:54 PM,89.1,57.9,35,29.89,10.0,South,12.7,-,N/A,,Clear,190,2013-07-05 21:54:00
5:54 PM,89.1,59.0,36,29.88,10.0,South,13.8,20.7,N/A,,Clear,170,2013-07-05 22:54:00
6:54 PM,88.0,57.9,36,29.88,10.0,SSE,4.6,18.4,N/A,,Clear,150,2013-07-05 23:54:00
7:54 PM,86.0,59.0,40,29.88,10.0,SE,9.2,-,N/A,,Clear,130,2013-07-06 00:54:00
8:54 PM,84.0,59.0,43,29.88,10.0,SE,9.2,-,N/A,,Clear,140,2013-07-06 01:54:00
9:54 PM,82.0,59.0,45,29.90,10.0,SE,12.7,-,N/A,,Clear,140,2013-07-06 02:54:00
10:54 PM,81.0,59.0,47,29.92,10.0,SE,13.8,20.7,N/A,,Clear,140,2013-07-06 03:54:00
11:54 PM,80.1,59.0,48,29.92,10.0,SE,15.0,21.9,N/A,,Clear,140,2013-07-06 04:54:00